Location: Kosice
(0.0000°N, 21.2500°E)
Time: 12:18:14
(UTC+02:00)

Ariane H10 - Visible Passes

Search period start: 14 May 2021 00:00
Search period end: 24 May 2021 00:00
Orbit: 370 x 30729 km, 7.3° (Epoch: 13 May)

Date Brightness Start Highest point End Pass type
(mag) Time Alt. Az. Time Alt. Az. Time Alt. Az.
14 May 7.3 02:12:34 78° S 02:12:34 78° S 10:09:29 10° E visible
14 May 2.1 19:33:42 10° W 19:36:11 42° S 19:36:50 33° SE visible
15 May 7.0 05:08:32 20° W 06:57:31 69° W 13:19:09 10° E visible
15 May 8.4 23:05:50 15° E 23:05:50 15° E 06:13:58 10° E visible
17 May 7.4 02:01:48 78° SSE 02:01:48 78° SSE 09:57:34 10° E visible
17 May 2.2 19:22:04 10° W 19:24:36 41° S 19:25:51 22° SE visible
18 May 7.1 04:57:45 22° W 06:45:15 71° W 13:07:33 10° E visible
18 May 8.4 22:55:03 13° E 22:55:03 13° E 05:58:49 10° E visible
20 May 7.4 01:51:00 76° SE 01:51:00 76° SE 09:45:37 10° E visible
20 May 2.2 19:10:22 10° W 19:12:59 39° S 19:14:51 15° ESE visible
21 May 7.2 04:46:56 25° W 06:32:53 72° W 12:55:54 10° E visible
21 May 8.5 22:44:14 12° E 22:44:14 12° E 05:43:06 10° E visible
23 May 7.5 01:40:09 74° SE 01:40:09 74° SE 09:33:36 10° E visible
23 May 2.3 18:58:36 10° W 19:01:19 38° S 19:03:45 10° ESE visible
